Location: Peebles
(55.6412°N, 3.1714°W)
Time: 14:00:03
(UTC+01:00)

ISS - Pass Details

Date: 05 October 2021
Orbit: 417 x 423 km, 51.6° (Epoch: 16 October)

Event Time Altitude Azimuth Distance (km) Brightness Sun altitude
Rises 19:17:30 0° 273° (W) 2,365 2.9 -6.5°
Reaches altitude 10° 19:20:15 10° 249° (WSW) 1,499 0.3 -6.9°
Maximum altitude 19:22:13 15° 213° (SSW) 1,239 -0.9 -7.2°
Drops below altitude 10° 19:24:11 10° 177° (S) 1,495 -1.0 -7.4°
Enters shadow 19:27:45 -3° 149° (SSE) 2,660 0.0 -7.9°
